Location: Mascot Post Office (historical)
(40.2645°N, 99.5462°W)
Time: 02:41:04
(UTC+00:00)

BREEZE-M DEB (TANK) - Pass Details

Date: 14 July 2020
Orbit: 310 x 15749 km, 49.4° (Epoch: 13 August)

Event Time Altitude Azimuth Distance (km) Brightness Sun altitude
Rises 03:11:35 0° 293° (WNW) 8,032 9.8 -10.8°
Reaches altitude 10° 03:19:25 10° 298° (WNW) 4,931 8.5 -11.9°
Maximum altitude 03:28:59 47° 11° (NNE) 1,037 3.9 -13.3°
Enters shadow 03:31:53 13° 86° (E) 1,547 4.2 -13.7°
